Crystal River, FL

1:14 PM EDT on June 25, 2017 (GMT -0400)
Crystal River

Weather History for KCGC - March, 2014

Change the Weather History Date:

Wednesday, March 12, 2014

  Actual Average (KBKV) Record (KBKV)
Temperature  
Mean Temperature 68 °F -  
Max Temperature 75 °F 74 °F 88 °F (2015)
Min Temperature 60 °F 50 °F 33 °F (2011)
Cooling Degree Days 2    
Growing Degree Days 18 (Base 50)    
Moisture  
Dew Point 62 °F    
Average Humidity 82    
Maximum Humidity 94    
Minimum Humidity 61    
Precipitation  
Precipitation 0.17 in - - ()
Sea Level Pressure  
Sea Level Pressure 29.80 in    
Wind  
Wind Speed 7 mph (WSW)    
Max Wind Speed 22 mph    
Max Gust Speed 32 mph    
Visibility 10 miles    
Events Rain    
Averages and records for this station are not official NWS values.
T = Trace of Precipitation, MM = Missing Value Source: NWS Daily Summary

Daily Weather History Graph

Daily Weather History Graph

Search for Another Location

Airport or City:

Trip Planner

Search our weather history database for the weather conditions in past years. The results will help you decide how hot, cold, wet, or windy it might be!

Date:

Astronomy

Mar. 12, 2014 Rise Set
Actual Time 7:43 AM EDT 7:36 PM EDT
Civil Twilight 7:19 AM EDT 8:00 PM EDT
Nautical Twilight 6:52 AM EDT 8:28 PM EDT
Astronomical Twilight 6:24 AM EDT 8:55 PM EDT
Moon 4:19 PM EDT (3/12) 5:00 AM EDT (3/12)
Length of Visible Light 12h 40m
Length of Day
11h 53m
Waxing Gibbous, 85% of the Moon is Illuminated
Mar 12
Waxing Gibbous
Mar 16
Full
Mar 23
Last Quarter
Mar 30
New
Apr 7
First Quarter

Hourly Weather History & Observations

Time (EDT) Temp. Dew Point Humidity Pressure Visibility Wind Dir Wind Speed Gust Speed Precip Events Conditions
12:15 AM 60.8 °F 57.2 °F 88% 29.86 in 10.0 mi Calm Calm - N/A   Scattered Clouds
12:35 AM 60.8 °F 57.2 °F 88% 29.86 in 10.0 mi Calm Calm - N/A   Mostly Cloudy
12:55 AM 62.6 °F 57.2 °F 82% 29.84 in 10.0 mi Calm Calm - N/A   Scattered Clouds
1:15 AM 62.6 °F 57.2 °F 82% 29.83 in 10.0 mi Calm Calm - N/A Rain Light Rain
1:35 AM 62.6 °F 59.0 °F 88% 29.82 in 10.0 mi Calm Calm - N/A Rain Light Rain
1:55 AM 62.6 °F 59.0 °F 88% 29.80 in 7.0 mi Calm Calm - 0.01 in Rain Light Rain
2:15 AM 62.6 °F 60.8 °F 94% 29.80 in 10.0 mi Calm Calm - N/A   Overcast
2:35 AM 64.4 °F 60.8 °F 88% 29.77 in 10.0 mi SE 3.5 mph - N/A   Overcast
2:55 AM 66.2 °F 62.6 °F 88% 29.75 in 10.0 mi SE 4.6 mph - N/A Rain Light Rain
3:15 AM 68.0 °F 62.6 °F 83% 29.76 in 10.0 mi South 4.6 mph - N/A   Overcast
3:35 AM 68.0 °F 62.6 °F 83% 29.76 in 10.0 mi SW 3.5 mph - N/A Rain Light Rain
3:55 AM 68.0 °F 62.6 °F 83% 29.76 in 10.0 mi South 3.5 mph - N/A   Mostly Cloudy
4:15 AM 68.0 °F 62.6 °F 83% 29.75 in 10.0 mi Calm Calm - N/A Rain Light Rain
4:35 AM 68.0 °F 62.6 °F 83% 29.75 in 10.0 mi South 3.5 mph - N/A   Drizzle
4:55 AM 68.0 °F 64.4 °F 88% 29.76 in 10.0 mi South 3.5 mph - N/A Rain Light Rain
5:15 AM 68.0 °F 64.4 °F 88% 29.75 in 10.0 mi Calm Calm - N/A Rain Light Rain
5:35 AM 68.0 °F 64.4 °F 88% 29.75 in 10.0 mi SSW 3.5 mph - 0.01 in Rain Light Rain
5:55 AM 68.0 °F 64.4 °F 88% 29.76 in 10.0 mi Calm Calm - 0.01 in   Overcast
6:15 AM 68.0 °F 64.4 °F 88% 29.77 in 10.0 mi South 3.5 mph - N/A   Overcast
6:35 AM 68.0 °F 64.4 °F 88% 29.78 in 10.0 mi WSW 5.8 mph - N/A   Overcast
6:55 AM 68.0 °F 66.2 °F 94% 29.78 in 10.0 mi SW 3.5 mph - N/A   Overcast
7:15 AM 68.0 °F 66.2 °F 94% 29.78 in 7.0 mi SW 5.8 mph - N/A   Overcast
7:35 AM 68.0 °F 66.2 °F 94% 29.79 in 7.0 mi WSW 5.8 mph - N/A   Overcast
7:55 AM 68.0 °F 66.2 °F 94% 29.78 in 7.0 mi SW 3.5 mph - N/A   Overcast
8:15 AM 68.0 °F 66.2 °F 94% 29.80 in 7.0 mi SW 6.9 mph - N/A   Overcast
8:35 AM 68.0 °F 66.2 °F 94% 29.80 in 7.0 mi WSW 6.9 mph - N/A   Overcast
8:55 AM 68.0 °F 66.2 °F 94% 29.80 in 7.0 mi SW 4.6 mph - N/A Rain Light Rain
9:15 AM 68.0 °F 64.4 °F 88% 29.83 in 5.0 mi WSW 12.7 mph 19.6 mph 0.14 in Rain Light Rain
9:35 AM 68.0 °F 64.4 °F 88% 29.83 in 5.0 mi SW 5.8 mph - 0.15 in   Overcast
9:55 AM 68.0 °F 64.4 °F 88% 29.83 in 10.0 mi WSW 6.9 mph - 0.15 in   Overcast
10:15 AM 68.0 °F 64.4 °F 88% 29.83 in 10.0 mi WSW 5.8 mph - N/A   Overcast
10:35 AM 69.8 °F 64.4 °F 83% 29.82 in 10.0 mi WSW 8.1 mph 16.1 mph N/A   Overcast
10:55 AM 69.8 °F 64.4 °F 83% 29.83 in 10.0 mi WSW 11.5 mph 17.3 mph N/A   Overcast
11:15 AM 71.6 °F 66.2 °F 83% 29.83 in 10.0 mi WSW 10.4 mph - N/A   Overcast
11:35 AM 71.6 °F 64.4 °F 78% 29.83 in 10.0 mi WSW 15.0 mph 20.7 mph N/A   Overcast
11:55 AM 73.4 °F 62.6 °F 69% 29.83 in 10.0 mi WSW 19.6 mph 26.5 mph N/A   Mostly Cloudy
12:15 PM 73.4 °F 64.4 °F 73% 29.83 in 10.0 mi West 19.6 mph 25.3 mph N/A   Mostly Cloudy
12:35 PM 73.4 °F 64.4 °F 73% 29.83 in 10.0 mi WSW 15.0 mph 23.0 mph N/A   Overcast
12:55 PM 73.4 °F 62.6 °F 69% 29.83 in 10.0 mi WSW 12.7 mph 19.6 mph N/A   Mostly Cloudy
1:15 PM 73.4 °F 62.6 °F 69% 29.83 in 10.0 mi West 16.1 mph 25.3 mph N/A   Mostly Cloudy
1:35 PM 73.4 °F 60.8 °F 65% 29.82 in 10.0 mi WSW 15.0 mph 23.0 mph N/A   Mostly Cloudy
1:55 PM 73.4 °F 60.8 °F 65% 29.80 in 10.0 mi West 20.7 mph 26.5 mph N/A   Scattered Clouds
2:15 PM 73.4 °F 60.8 °F 65% 29.80 in 10.0 mi West 16.1 mph 25.3 mph N/A   Scattered Clouds
2:35 PM 75.2 °F 60.8 °F 61% 29.79 in 10.0 mi West 12.7 mph - N/A   Clear
2:55 PM 75.2 °F 60.8 °F 61% 29.78 in 10.0 mi West 15.0 mph 21.9 mph N/A   Scattered Clouds
3:15 PM 73.4 °F 62.6 °F 69% 29.77 in 10.0 mi West 17.3 mph 24.2 mph N/A   Scattered Clouds
3:35 PM 73.4 °F 62.6 °F 69% 29.77 in 10.0 mi West 17.3 mph 27.6 mph N/A   Mostly Cloudy
3:55 PM 73.4 °F 60.8 °F 65% 29.77 in 10.0 mi West 21.9 mph 27.6 mph N/A   Overcast
4:15 PM 73.4 °F 62.6 °F 69% 29.77 in 10.0 mi West 19.6 mph 27.6 mph N/A   Overcast
4:35 PM 71.6 °F 62.6 °F 73% 29.77 in 10.0 mi West 18.4 mph 29.9 mph N/A   Overcast
4:55 PM 69.8 °F 62.6 °F 78% 29.77 in 10.0 mi West 15.0 mph 26.5 mph N/A   Overcast
5:15 PM 69.8 °F 62.6 °F 78% 29.77 in 10.0 mi West 10.4 mph 24.2 mph N/A   Overcast
5:35 PM 68.0 °F 60.8 °F 78% 29.77 in 10.0 mi West 10.4 mph 20.7 mph N/A   Overcast
5:55 PM 68.0 °F 60.8 °F 78% 29.77 in 10.0 mi West 11.5 mph 20.7 mph N/A   Overcast
6:15 PM 68.0 °F 60.8 °F 78% 29.77 in 10.0 mi West 12.7 mph 23.0 mph N/A   Overcast
6:35 PM 68.0 °F 60.8 °F 78% 29.77 in 10.0 mi West 15.0 mph 20.7 mph N/A   Mostly Cloudy
6:55 PM 68.0 °F 60.8 °F 78% 29.77 in 10.0 mi West 13.8 mph 20.7 mph N/A   Overcast
7:15 PM 66.2 °F 59.0 °F 78% 29.78 in 10.0 mi West 15.0 mph 24.2 mph N/A   Overcast
7:35 PM 66.2 °F 59.0 °F 78% 29.78 in 10.0 mi West 11.5 mph 19.6 mph N/A   Overcast
7:55 PM 64.4 °F 59.0 °F 83% 29.79 in 10.0 mi West 15.0 mph 26.5 mph N/A   Overcast
8:15 PM 64.4 °F 57.2 °F 77% 29.80 in 10.0 mi West 12.7 mph 19.6 mph N/A   Overcast
8:35 PM 64.4 °F 59.0 °F 83% 29.81 in 10.0 mi West 15.0 mph 20.7 mph N/A   Overcast
8:55 PM 64.4 °F 59.0 °F 83% 29.82 in 10.0 mi West 15.0 mph 23.0 mph N/A   Overcast
9:15 PM 64.4 °F 59.0 °F 83% 29.83 in 10.0 mi West 18.4 mph 32.2 mph N/A   Mostly Cloudy
9:35 PM 64.4 °F 59.0 °F 83% 29.83 in 10.0 mi West 12.7 mph 27.6 mph N/A   Mostly Cloudy
9:55 PM 62.6 °F 59.0 °F 88% 29.84 in 10.0 mi West 12.7 mph 25.3 mph N/A   Scattered Clouds
10:15 PM 62.6 °F 59.0 °F 88% 29.85 in 10.0 mi West 15.0 mph 23.0 mph N/A   Scattered Clouds
10:35 PM 62.6 °F 59.0 °F 88% 29.86 in 10.0 mi West 12.7 mph 18.4 mph N/A   Mostly Cloudy
10:55 PM 64.4 °F 59.0 °F 83% 29.86 in 10.0 mi West 13.8 mph 23.0 mph N/A   Overcast
11:15 PM 64.4 °F 59.0 °F 83% 29.86 in 10.0 mi West 13.8 mph 24.2 mph N/A   Mostly Cloudy
11:35 PM 64.4 °F 59.0 °F 83% 29.86 in 10.0 mi West 11.5 mph 20.7 mph N/A   Scattered Clouds
11:55 PM 64.4 °F 59.0 °F 83% 29.86 in 10.0 mi West 11.5 mph 24.2 mph N/A   Scattered Clouds